Stündliche Wetter Dabie

Heute, 28 Oktober, Mittwoch

Zeit Temperatur Niederschläge Wind Luftdruck Luftfeuchtigkeit
00:00 +7°C° 0 mm 3 m/S 748 mmHg 81%
01:00 +7°C° 0 mm 3 m/S 748 mmHg 81%
02:00 +7°C° 0 mm 3 m/S 748 mmHg 81%
03:00 +7°C° 0 mm 3 m/S 748 mmHg 81%
04:00 +7°C° 0 mm 3 m/S 748 mmHg 81%
05:00 +7°C° 0 mm 3 m/S 748 mmHg 81%
06:00 +5°C° 0 mm 3 m/S 748 mmHg 80%
07:00 +5°C° 0 mm 3 m/S 748 mmHg 80%
08:00 +8°C° 0 mm 3 m/S 748 mmHg 72%
09:00 +10°C° 0 mm 4 m/S 749 mmHg 63%
10:00 +12°C° 0 mm 4 m/S 749 mmHg 55%
11:00 +12°C° 0 mm 4 m/S 748 mmHg 55%
12:00 +13°C° 0 mm 4 m/S 748 mmHg 54%
13:00 +13°C° 0 mm 3 m/S 748 mmHg 54%
14:00 +12°C° 0 mm 3 m/S 748 mmHg 58%
15:00 +12°C° 0 mm 3 m/S 748 mmHg 62%
16:00 +11°C° 0 mm 3 m/S 748 mmHg 67%
17:00 +11°C° 0 mm 3 m/S 749 mmHg 70%
18:00 +10°C° 0 mm 3 m/S 749 mmHg 72%
19:00 +10°C° 0 mm 4 m/S 749 mmHg 75%
20:00 +10°C° 0 mm 4 m/S 749 mmHg 75%
21:00 +10°C° 0 mm 4 m/S 749 mmHg 75%
22:00 +10°C° 0 mm 4 m/S 750 mmHg 74%
23:00 +10°C° 0 mm 4 m/S 750 mmHg 74%

Morgen, 29 Oktober, Donnerstag

Zeit Temperatur Niederschläge Wind Luftdruck Luftfeuchtigkeit
00:00 +10°C° 0 mm 4 m/S 750 mmHg 75%
01:00 +10°C° 0 mm 4 m/S 750 mmHg 75%
02:00 +10°C° 0 mm 4 m/S 750 mmHg 75%
03:00 +8°C° 0 mm 4 m/S 749 mmHg 75%
04:00 +8°C° 0 mm 4 m/S 749 mmHg 75%
05:00 +8°C° 0 mm 4 m/S 749 mmHg 76%
06:00 +8°C° 0 mm 4 m/S 749 mmHg 77%
07:00 +8°C° 0 mm 4 m/S 749 mmHg 78%
08:00 +10°C° 0 mm 4 m/S 749 mmHg 75%
09:00 +10°C° 0 mm 5 m/S 749 mmHg 72%
10:00 +12°C° 0 mm 5 m/S 749 mmHg 69%
11:00 +12°C° 0.6 mm 5 m/S 749 mmHg 73%
12:00 +10°C° 0.6 mm 5 m/S 749 mmHg 78%
13:00 +10°C° 0.6 mm 5 m/S 748 mmHg 83%
14:00 +9°C° 0.6 mm 5 m/S 749 mmHg 82%
15:00 +9°C° 0.6 mm 5 m/S 749 mmHg 81%
16:00 +8°C° 0.6 mm 4 m/S 750 mmHg 79%
17:00 +8°C° 0 mm 4 m/S 750 mmHg 80%
18:00 +7°C° 0 mm 4 m/S 751 mmHg 81%
19:00 +7°C° 0 mm 4 m/S 752 mmHg 82%
20:00 +6°C° 0 mm 4 m/S 752 mmHg 82%
21:00 +6°C° 0 mm 4 m/S 753 mmHg 83%
22:00 +6°C° 0 mm 4 m/S 753 mmHg 83%
23:00 +5°C° 0 mm 4 m/S 754 mmHg 83%

übermorgen, 30 Oktober, Freitag

Zeit Temperatur Niederschläge Wind Luftdruck Luftfeuchtigkeit
00:00 +5°C° 0 mm 4 m/S 754 mmHg 83%
01:00 +5°C° 0 mm 4 m/S 754 mmHg 84%
02:00 +5°C° 0 mm 3 m/S 754 mmHg 84%
03:00 +5°C° 0 mm 3 m/S 754 mmHg 84%
04:00 +6°C° 0 mm 2 m/S 754 mmHg 84%
05:00 +6°C° 0.1 mm 2 m/S 754 mmHg 84%
06:00 +6°C° 0.1 mm 2 m/S 753 mmHg 83%
07:00 +7°C° 0.1 mm 2 m/S 753 mmHg 83%
08:00 +7°C° 0.5 mm 3 m/S 752 mmHg 85%
09:00 +8°C° 0.5 mm 3 m/S 752 mmHg 88%
10:00 +8°C° 0.5 mm 3 m/S 752 mmHg 90%
11:00 +8°C° 1.1 mm 4 m/S 752 mmHg 91%
12:00 +8°C° 1.1 mm 4 m/S 751 mmHg 91%
13:00 +9°C° 1.1 mm 5 m/S 751 mmHg 92%
14:00 +10°C° 0.6 mm 5 m/S 751 mmHg 92%
15:00 +10°C° 0.6 mm 6 m/S 751 mmHg 91%
16:00 +10°C° 0.6 mm 6 m/S 751 mmHg 91%
17:00 +11°C° 0.4 mm 6 m/S 751 mmHg 91%
18:00 +11°C° 0.4 mm 6 m/S 751 mmHg 92%
19:00 +11°C° 0.4 mm 6 m/S 751 mmHg 92%
20:00 +11°C° 0.3 mm 6 m/S 752 mmHg 92%
21:00 +11°C° 0.3 mm 6 m/S 752 mmHg 92%
22:00 +11°C° 0.3 mm 6 m/S 752 mmHg 92%
23:00 +11°C° 0.3 mm 6 m/S 752 mmHg 92%

31 Oktober, Samstag

Zeit Temperatur Niederschläge Wind Luftdruck Luftfeuchtigkeit
00:00 +11°C° 0.3 mm 6 m/S 753 mmHg 92%
01:00 +13°C° 0.3 mm 6 m/S 753 mmHg 93%
02:00 +13°C° 0.3 mm 5 m/S 753 mmHg 93%
03:00 +13°C° 0.3 mm 5 m/S 754 mmHg 94%
04:00 +12°C° 0.3 mm 4 m/S 754 mmHg 95%
05:00 +12°C° 0.2 mm 4 m/S 754 mmHg 95%
06:00 +12°C° 0.2 mm 4 m/S 755 mmHg 96%
07:00 +12°C° 0.2 mm 3 m/S 755 mmHg 96%
08:00 +13°C° 0.1 mm 3 m/S 755 mmHg 95%
09:00 +14°C° 0.1 mm 2 m/S 756 mmHg 94%
10:00 +14°C° 0.1 mm 2 m/S 756 mmHg 92%
11:00 +14°C° 0.1 mm 2 m/S 756 mmHg 90%
12:00 +15°C° 0.1 mm 1 m/S 756 mmHg 88%
13:00 +15°C° 0.1 mm 1 m/S 756 mmHg 86%
14:00 +14°C° 0.1 mm 1 m/S 756 mmHg 88%
15:00 +14°C° 0.1 mm 2 m/S 756 mmHg 89%
16:00 +14°C° 0.1 mm 2 m/S 756 mmHg 90%
17:00 +13°C° 0 mm 2 m/S 756 mmHg 91%
18:00 +12°C° 0 mm 2 m/S 756 mmHg 92%
19:00 +12°C° 0 mm 2 m/S 756 mmHg 93%
20:00 +11°C° 0 mm 3 m/S 756 mmHg 93%
21:00 +10°C° 0 mm 3 m/S 756 mmHg 92%
22:00 +10°C° 0 mm 3 m/S 756 mmHg 92%
23:00 +10°C° 0 mm 3 m/S 756 mmHg 91%

1 November, Sonntag

Zeit Temperatur Niederschläge Wind Luftdruck Luftfeuchtigkeit
00:00 +8°C° 0 mm 4 m/S 756 mmHg 90%
01:00 +8°C° 0 mm 4 m/S 756 mmHg 88%
02:00 +8°C° 0 mm 4 m/S 755 mmHg 89%
03:00 +9°C° 0 mm 3 m/S 755 mmHg 89%
04:00 +9°C° 0 mm 3 m/S 755 mmHg 89%
05:00 +9°C° 0 mm 3 m/S 755 mmHg 89%
06:00 +9°C° 0 mm 3 m/S 755 mmHg 89%
07:00 +9°C° 0 mm 3 m/S 755 mmHg 89%
08:00 +10°C° 0 mm 3 m/S 754 mmHg 85%
09:00 +12°C° 0 mm 4 m/S 754 mmHg 81%
10:00 +13°C° 0 mm 4 m/S 754 mmHg 77%
11:00 +14°C° 0 mm 4 m/S 754 mmHg 74%
12:00 +16°C° 0 mm 3 m/S 754 mmHg 71%
13:00 +17°C° 0 mm 3 m/S 754 mmHg 67%
14:00 +16°C° 0 mm 3 m/S 754 mmHg 71%
15:00 +14°C° 0 mm 3 m/S 753 mmHg 74%
16:00 +13°C° 0 mm 3 m/S 753 mmHg 77%
17:00 +12°C° 0 mm 3 m/S 753 mmHg 79%
18:00 +12°C° 0 mm 3 m/S 753 mmHg 82%
19:00 +11°C° 0 mm 3 m/S 753 mmHg 84%
20:00 +11°C° 0 mm 3 m/S 753 mmHg 83%
21:00 +10°C° 0 mm 3 m/S 753 mmHg 83%
22:00 +10°C° 0 mm 3 m/S 753 mmHg 83%
23:00 +10°C° 0 mm 3 m/S 753 mmHg 82%

2 November, Montag

Zeit Temperatur Niederschläge Wind Luftdruck Luftfeuchtigkeit
00:00 +10°C° 0 mm 3 m/S 753 mmHg 81%
01:00 +11°C° 0 mm 3 m/S 753 mmHg 80%
02:00 +11°C° 0 mm 3 m/S 753 mmHg 78%
03:00 +11°C° 0 mm 3 m/S 752 mmHg 77%
04:00 +11°C° 0 mm 3 m/S 752 mmHg 75%
05:00 +11°C° 0 mm 3 m/S 752 mmHg 74%
06:00 +11°C° 0 mm 3 m/S 753 mmHg 73%
07:00 +11°C° 0 mm 3 m/S 753 mmHg 71%
08:00 +13°C° 0 mm 3 m/S 753 mmHg 68%
09:00 +14°C° 0 mm 3 m/S 753 mmHg 64%
10:00 +16°C° 0 mm 3 m/S 753 mmHg 61%
11:00 +17°C° 0 mm 3 m/S 753 mmHg 60%
12:00 +18°C° 0 mm 3 m/S 753 mmHg 58%
13:00 +18°C° 0 mm 3 m/S 753 mmHg 57%
14:00 +17°C° 0 mm 3 m/S 753 mmHg 60%
15:00 +16°C° 0 mm 3 m/S 753 mmHg 63%
16:00 +16°C° 0 mm 3 m/S 753 mmHg 67%
17:00 +14°C° 0 mm 3 m/S 753 mmHg 67%
18:00 +13°C° 0 mm 3 m/S 753 mmHg 68%
19:00 +13°C° 0 mm 3 m/S 753 mmHg 69%
20:00 +13°C° 0 mm 3 m/S 753 mmHg 69%
21:00 +12°C° 0 mm 3 m/S 754 mmHg 69%
22:00 +12°C° 0 mm 3 m/S 754 mmHg 69%
23:00 +12°C° 0 mm 3 m/S 754 mmHg 70%
Mehr zeigen

Wir brauchen deine Erlaubnis

Meteoprog und unser Service Anbieter werden persönliche Daten aufbewahren, so wie Cookies, Geräte Bezeichnung oder ähnliche Technologien von deinem Gerät und Prozess, so wie Persönliche Daten Inhalte und Werbungen, genauso wie social Media und den Verkehr zu analysieren.

  • Aufbewahrung und/oder Zugang zu deiner Geräte Informationen.

    Cookies, Geräte Bezeichnung oder andere Informationen, können aufbewahrt oder Zugang zu deinem Gerät erhalten, für den Grund, der oben angegeben wird.

  • Personalisierte Werbung und Inhalte, Messungen, Einblick in das Publikum und Produkt Entwicklung.

    Werbungen und Inhalte können personalisiert werden, basierend auf ein Profil. Mehr Daten können besser personalisierte Werbungen und Inhalte hinzufügen. Werbung und Inhalte können gezeigt und gemessen werden. Einblicke über das Publikum, welche die Werbung gesehen haben und den Inhalt, können abgeleitet werden. So wie Daten können genutzt werden, um es zu verbessern oder die Benutzer Erfahrung zu verbessern das System und die Software.

Wenn du “Ich stimme zu” klickst, erlaubst du uns, die Cookies zu benutzen die Geräte Bezeichnung, den Web oder ähnliche Technologien zu benutzen. Deine Settings, können in deinem Gerät bei deinem Browser geändert werden.

Für den bestimmten Zweck, berechtigten Interessen beruhen darauf, mehr als auf den Inhalt. Du kannst mehr darüber in unseren Privaten und Cookie Politik lesen.